#timestamp,LO_Frequency,Hit,StdDev 
1543701615.8,286047000.7,N
1543701635.7,286046998.7,N
1543701655.5,286046996.9,N
1543701675.4,286046998.7,N
1543701695.2,286047001.2,N
1543701715.0,286046999.1,N
1543701715.9,286046999.1,N
1543701735.8,286047001.6,N
1543701755.6,286047006.0,N
1543701775.4,286047003.8,N
1543701795.3,286047003.0,N
1543701815.1,286047005.8,N
1543701835.9,286047005.4,N
1543701855.7,286047003.5,N
1543701875.5,286047005.2,N
1543701895.4,286047005.7,N
1543701915.2,286047004.3,N
1543701935.0,286046999.0,N
1543701935.9,286046999.0,N
1543701955.8,286046995.7,N
1543701975.6,286046993.3,N
1543701995.5,286046996.4,N
1543702015.3,286046996.3,N
1543702035.1,286046995.2,N
1543702055.9,286046996.6,N
1543702075.7,286047002.0,N
1543702095.5,286047000.1,N
1543702115.4,286047001.5,N
1543702135.2,286046999.0,N
1543702155.1,286046998.0,N
1543702156.0,286046998.0,N
1543702175.8,286046994.0,N
1543702195.6,286046992.1,N
1543702215.5,286046991.5,N
1543702235.3,286046993.1,N
1543702255.2,286046997.8,N
1543702275.9,286046999.2,N
1543702295.7,286047002.1,N
1543702315.6,286047003.9,N
1543702335.4,286047005.3,N
1543702355.2,286047004.2,N
1543702375.1,286047003.2,N
1543702376.0,286047003.2,N
1543702395.8,286047005.2,N
1543702415.7,286047001.5,N
1543702435.5,286047002.7,N
1543702455.3,286046996.9,N
1543702475.2,286047001.5,N
1543702495.0,286047004.0,N
1543702495.9,286047004.0,N
1543702515.8,286047001.5,N
1543702535.6,286047003.6,N
1543702555.4,286047002.5,N
1543702575.3,286046999.5,N
1543702595.1,286046997.6,N
1543702615.8,286046994.1,N
1543702635.7,286046994.8,N
1543702655.5,286046994.5,N
1543702675.4,286046995.6,N
1543702695.2,286046997.2,N
1543702715.0,286046999.9,N
1543702715.9,286046999.9,N
1543702735.8,286047003.5,N
1543702755.6,286047001.9,N
1543702775.4,286047001.4,N
1543702795.3,286047002.0,N
1543702815.1,286047003.1,N
1543702835.9,286047004.0,N
1543702855.7,286047002.3,N
1543702875.5,286046999.4,N
1543702895.4,286046996.7,N
1543702915.2,286046998.5,N
1543702935.0,286047001.2,N
1543702935.9,286047001.2,N
1543702955.8,286047003.8,N
1543702975.6,286047006.1,N
1543702995.5,286047007.1,N
1543703015.3,286047003.9,N
1543703035.1,286046999.8,N
1543703055.9,286046999.1,N
1543703075.7,286046999.5,N
1543703095.5,286046996.7,N
1543703115.4,286046996.4,N
1543703135.2,286046994.7,N
1543703155.1,286046991.3,N
1543703156.0,286046991.3,N
1543703175.8,286046988.9,N
1543703195.6,286046996.3,N
1543703215.5,286046998.4,N
1543703235.3,286047000.8,N
1543703255.1,286046999.1,N
1543703275.9,286046996.5,N
1543703295.7,286046999.0,N
1543703315.6,286046998.7,N
1543703335.4,286046997.5,N
1543703355.2,286046995.8,N
1543703375.1,286046995.8,N
1543703376.0,286046995.8,N
1543703395.8,286046994.4,N
1543703415.6,286046994.8,N
1543703435.5,286046990.2,N
1543703455.3,286046993.2,N
1543703475.2,286046991.2,N
1543703495.9,286046993.9,N
1543703515.7,286046997.2,N
1543703535.6,286046997.5,N
1543703555.4,286046995.2,N
1543703575.2,286046993.4,N
1543703595.1,286046997.4,N
1543703596.0,286046997.4,N
1543703615.8,286046995.4,N
1543703635.7,286046996.7,N
1543703655.5,286046999.6,N
1543703675.3,286046998.7,N
1543703695.2,286047001.8,N
1543703715.0,286047002.1,N
1543703715.9,286047002.1,N
1543703735.7,286046999.5,N
1543703755.6,286046999.7,N
1543703775.4,286047000.2,N
1543703795.3,286047002.8,N
1543703815.1,286047000.5,N
1543703816.0,286047000.5,N
1543703835.8,286047004.4,N
1543703855.7,286047004.7,N
1543703875.5,286047002.5,N
1543703895.3,286047000.2,N
1543703915.2,286047000.7,N
1543703935.0,286046999.2,N
1543703935.9,286046999.2,N
1543703955.8,286046996.6,N
1543703975.6,286046996.8,N
1543703995.4,286046999.1,N
1543704015.3,286046997.8,N
1543704035.1,286046997.0,N
1543704055.9,286046996.2,N
1543704075.7,286046993.3,N
1543704095.5,286046997.2,N
1543704115.4,286046997.2,N
1543704135.2,286046993.3,N
1543704155.0,286046994.6,N
1543704155.9,286046994.6,N
1543704175.8,286046995.0,N
1543704195.6,286046997.4,N
1543704215.5,286046997.6,N
1543704235.3,286046999.4,N
1543704255.1,286046995.3,N
1543704275.9,286046994.4,N
1543704295.7,286046997.7,N
1543704315.5,286046993.4,N
1543704335.4,286046995.4,N
1543704355.2,286046997.6,N
1543704375.1,286046993.4,N
1543704376.0,286046993.4,N
1543704395.8,286046995.1,N
1543704415.6,286046995.5,N
1543704435.5,286046995.4,N
1543704455.3,286046998.0,N
1543704475.1,286046995.8,N
1543704495.9,286046994.6,Y
1543704515.7,286046997.2,P
1543704535.6,286046997.5,P
1543704555.4,286047000.5,N
1543704575.2,286047002.2,N
1543704595.1,286047005.7,N
1543704596.0,286047005.7,N
1543704615.8,286047005.0,N
1543704635.7,286047003.1,N
1543704655.5,286047002.5,N
1543704675.3,286047000.0,N
1543704695.2,286046999.1,N
1543704715.9,286046997.2,N
1543704735.7,286046997.4,N
1543704755.6,286046997.2,N
1543704775.4,286047002.5,N
1543704795.2,286047003.4,N
1543704815.1,286047001.8,N
1543704816.0,286047001.8,N
1543704835.8,286047002.5,N
1543704855.7,286046998.8,N
1543704875.5,286046997.1,N
1543704895.3,286046993.4,N
1543704915.2,286046995.7,N
1543704935.0,286046997.5,N
1543704935.9,286046997.5,N
1543704955.8,286046998.0,N
1543704975.6,286046995.7,N
1543704995.4,286046993.8,N
1543705015.3,286046999.3,N
1543705035.1,286047000.6,N
1543705036.0,286047000.6,N
1543705055.8,286046998.1,N
1543705075.7,286046997.7,N
1543705095.5,286046998.7,N
1543705115.3,286046997.0,N
1543705135.2,286047002.7,N
1543705155.0,286047002.3,N
1543705155.9,286047002.3,N
1543705175.8,286047005.8,N
1543705195.6,286047010.7,Y
